Temp
10 10 10 10 9 9 9 8 8 8 8 8 7 7 6 6 5 5 5 5 4 4 4 4 4 4 4 4 4 4 5 6 6 6 6 6 6 6 7 8 8 9 9 9 9 9 9 8 8 8 7 7 7 6 6 6 6 6 5 5 5 5 5 5 5 5 5 5 5
10 10 9 9 8 8 7 7 7 7 7 6 6 6 5 5 5 4 4 4 4 3 3 3 3 3 3 3 4 4 5 6 6 5 5 5 6 7 8 8 9 8 8 8 8 9 8 8 7 7 7 6 6 6 6 5 5 5 5 5 5 5 5 5 5 5 5 5 5
10 9 8 8 7 7 6 6 6 6 6 6 6 6 5 5 4 4 4 4 4 4 3 3 3 3 4 4 4 5 5 6 5 4 4 5 5 6 6 6 6 6 6 7 8 8 8 7 7 7 6 6 6 6 6 5 5 5 5 5 5 5 5 5 5 5 4 4 4
8 8 7 7 6 6 6 6 6 6 6 6 6 6 5 5 4 4 4 4 4 4 3 3 3 4 4 4 5 5 5 5 4 4 4 5 5 5 5 5 5 6 7 8 8 8 7 7 7 7 6 6 6 6 5 5 5 5 5 5 5 5 5 4 4 4 4 4 4
8 7 7 7 7 6 6 6 6 6 6 6 6 5 5 5 4 4 4 4 4 4 4 4 4 4 4 4 5 5 5 5 4 4 5 5 5 5 5 6 6 7 8 8 7 7 7 7 7 6 6 6 6 5 5 5 5 5 5 4 4 4 4 4 4 4 4 4 4
8 8 7 7 7 7 7 6 6 6 6 6 6 5 5 5 4 4 4 4 4 4 4 4 4 4 5 5 5 5 5 5 4 5 5 6 6 6 7 7 8 8 8 7 7 7 7 7 6 6 6 6 6 5 5 5 5 4 4 4 4 4 4 4 4 4 3 3 3
9 9 8 8 8 7 7 7 7 6 6 6 6 5 5 5 5 4 4 4 4 4 4 4 4 5 5 5 6 6 5 5 5 6 6 6 7 7 7 8 8 7 7 7 7 7 6 6 6 6 6 6 5 5 5 4 4 4 4 4 4 4 4 3 3 3 3 3 3
9 8 8 8 8 8 7 7 7 6 6 6 6 5 5 5 5 4 4 4 4 4 4 5 5 5 5 6 6 6 6 6 6 7 7 7 8 8 8 8 7 7 7 7 7 6 6 6 6 6 6 5 5 5 4 4 4 4 4 4 3 3 3 3 3 3 3 3 3
8 8 8 8 8 8 7 7 7 6 6 6 6 5 5 5 5 5 4 4 4 4 5 5 5 5 6 6 6 6 6 7 7 8 8 8 8 8 8 7 7 7 7 6 6 6 6 6 6 5 5 5 5 4 4 4 4 4 4 3 3 3 3 3 3 3 2 2 2
8 7 7 7 7 7 7 7 7 7 6 6 6 6 5 5 5 5 5 5 5 5 5 5 5 6 6 6 6 7 7 7 8 8 8 8 8 8 8 7 7 7 6 6 6 6 6 6 6 5 5 5 5 4 4 4 4 4 3 3 3 3 3 3 2 2 2 2 2
8 7 7 7 7 7 7 7 7 7 7 6 6 6 6 5 5 5 5 5 5 5 6 6 6 6 6 6 7 7 8 8 8 8 8 8 8 8 8 7 7 7 6 6 6 6 6 6 5 5 5 5 4 4 4 4 3 3 3 3 3 3 3 2 2 2 2 2 1
8 8 7 7 7 7 7 7 7 7 7 6 6 6 6 6 6 6 6 6 6 6 6 6 6 6 6 7 7 8 8 8 8 8 8 9 9 8 8 7 7 7 6 6 6 6 6 6 5 5 5 4 4 4 4 4 3 3 3 3 3 3 2 2 2 2 2 1 1
8 8 7 7 7 7 7 7 7 7 7 6 6 6 6 6 6 6 7 7 6 6 6 6 6 7 7 7 8 8 8 8 8 8 9 9 8 8 7 7 7 6 6 6 6 6 6 6 5 5 5 4 4 4 4 4 3 3 3 3 3 2 2 2 2 2 1 1 1
9 8 8 7 7 7 7 7 7 7 7 6 6 6 6 7 7 7 7 7 7 6 6 6 6 7 7 8 8 8 8 8 8 9 9 9 8 8 7 7 6 6 6 6 6 6 6 5 5 5 5 5 4 4 4 4 3 3 3 3 3 2 2 2 2 1 1 1 1
9 8 8 8 7 7 7 7 7 7 7 7 7 7 7 7 7 7 7 7 7 6 6 6 6 7 7 8 8 8 8 8 9 9 9 8 8 7 7 7 6 6 6 6 6 6 6 5 5 5 5 5 4 4 4 4 3 3 3 3 2 2 2 2 1 1 1 1 1
10 9 8 8 8 8 8 8 8 8 8 8 8 8 8 8 8 8 7 7 7 6 6 6 6 7 7 8 8 8 8 8 9 9 9 8 8 7 7 7 6 6 6 6 6 5 5 5 5 5 5 5 4 4 4 3 3 3 3 2 2 2 2 1 1 1 1 1 1
10 9 9 8 8 8 8 9 9 9 9 9 8 8 8 8 8 7 7 7 7 6 6 6 6 7 7 8 8 8 8 8 8 9 9 8 8 7 7 6 6 6 6 6 6 5 5 5 5 5 5 4 4 4 3 3 3 3 2 2 2 2 1 1 1 1 1 0 0
10 10 9 9 9 9 9 9 9 9 9 9 9 8 8 8 8 7 7 7 7 6 6 6 6 7 7 8 8 8 8 8 9 9 9 8 8 7 7 6 6 6 6 6 6 6 5 5 5 5 4 4 4 4 3 3 3 2 2 2 2 1 1 1 1 1 0 0 -0
11 10 10 9 9 9 9 10 10 9 9 9 9 8 8 8 7 7 7 7 7 7 6 6 7 7 8 8 8 8 8 8 9 9 9 8 8 7 7 6 6 6 6 6 6 6 5 5 5 5 4 4 3 3 3 3 2 2 2 1 1 1 1 1 0 0 0 -0 -0
11 10 10 10 10 10 10 10 10 9 9 9 9 8 8 8 7 7 7 7 7 7 7 7 7 7 8 8 8 8 8 9 9 9 8 8 7 7 6 6 6 6 5 5 5 5 5 5 5 4 4 4 3 3 3 2 2 2 1 1 1 1 0 0 0 -0 -0 -0 -1
11 11 10 10 10 10 10 10 10 9 9 9 9 8 8 8 7 7 7 7 7 7 7 7 7 7 8 8 8 8 8 9 9 9 8 7 7 7 6 6 6 5 5 5 5 5 5 5 4 4 4 3 3 3 2 2 2 1 1 1 1 0 0 -0 -0 -0 -1 -1 -1
11 11 11 10 10 10 10 10 10 9 9 9 9 8 8 8 7 7 7 7 7 7 7 7 8 8 8 8 8 8 9 9 9 8 8 7 7 6 6 6 5 5 5 5 5 5 5 4 4 4 4 3 3 2 2 2 1 1 1 0 0 0 -0 -0 -0 -1 -1 -1 -1
12 11 11 11 10 10 10 10 10 9 9 9 8 8 8 8 7 7 7 7 7 7 7 7 8 8 8 8 9 9 9 8 8 8 7 7 7 6 6 5 5 5 5 5 5 5 4 4 4 4 3 3 2 2 2 1 1 1 1 0 -0 -0 -0 -1 -1 -1 -1 -1 -1
11 11 11 11 10 10 10 10 10 9 9 9 8 8 8 7 7 7 7 7 7 7 7 7 7 8 8 9 9 9 8 8 8 8 7 7 6 6 5 5 5 5 5 5 5 4 4 4 4 3 3 3 2 2 1 1 1 1 0 -0 -0 -0 -1 -1 -1 -1 -1 -2 -2
11 11 11 11 11 10 10 10 10 9 9 9 8 8 8 7 7 7 7 6 6 6 6 7 7 7 8 9 9 9 8 8 8 7 7 6 6 6 5 5 5 5 5 4 4 4 4 4 4 3 3 2 2 1 1 1 0 0 0 -0 -0 -1 -1 -1 -1 -2 -2 -2 -2
11 11 11 11 11 10 10 10 9 9 9 8 8 8 7 7 7 7 6 6 6 6 6 6 6 7 8 9 9 9 8 8 8 8 7 6 6 5 5 5 5 4 4 4 4 4 4 4 3 3 3 2 2 1 1 0 0 -0 -0 -0 -1 -1 -1 -1 -2 -2 -2 -2 -3
11 11 11 11 11 10 10 10 9 9 9 8 8 7 7 7 7 6 6 6 6 6 6 6 6 7 7 8 9 9 9 8 8 8 7 6 6 5 5 5 4 4 4 4 4 4 3 3 3 3 2 2 1 1 1 0 -0 -0 -1 -1 -1 -1 -1 -2 -2 -2 -3 -3 -3
11 11 11 11 11 10 10 10 9 9 8 8 8 7 7 7 6 6 6 5 5 5 5 6 6 6 7 8 8 9 9 8 8 7 6 6 5 5 5 4 4 4 4 4 3 3 3 3 3 2 2 2 1 1 1 0 -0 -0 -1 -1 -1 -2 -2 -2 -2 -3 -3 -3 -4
11 11 11 11 10 10 10 9 9 8 8 8 7 7 7 6 6 6 5 5 5 5 5 5 5 6 7 7 8 9 8 8 7 6 6 5 5 4 4 4 4 4 4 3 3 3 3 2 2 2 2 1 1 1 0 0 -0 -1 -1 -1 -2 -2 -2 -3 -3 -3 -3 -4 -4
11 11 11 10 10 10 9 9 9 8 8 7 7 7 7 6 6 5 5 5 5 5 5 5 5 6 7 8 8 8 8 7 7 6 5 5 4 4 4 4 3 3 3 3 3 2 2 2 2 1 1 1 1 0 -0 -0 -1 -1 -1 -2 -2 -3 -3 -3 -3 -4 -4 -4 -4
11 11 11 10 10 9 9 9 8 8 7 7 7 7 6 6 5 5 5 5 5 5 5 5 5 6 7 8 8 8 7 6 5 5 5 4 4 4 3 3 3 3 3 2 2 2 2 2 1 1 1 0 0 -0 -0 -1 -1 -2 -2 -2 -3 -3 -3 -4 -4 -4 -4 -5 -5
11 11 10 10 9 9 8 8 8 7 7 7 7 6 6 5 5 5 5 5 5 5 5 5 5 6 7 7 7 7 6 6 5 5 4 4 4 3 3 3 3 2 2 2 2 1 1 1 1 1 0 0 -0 -0 -1 -1 -2 -2 -3 -3 -3 -4 -4 -4 -4 -5 -5 -5 -5
11 10 10 9 8 8 8 8 7 7 7 6 6 6 5 5 5 5 5 5 5 5 4 4 5 5 6 6 6 6 5 5 5 5 4 4 3 3 3 2 2 2 1 1 1 1 1 0 0 0 0 -0 -0 -1 -1 -2 -2 -3 -3 -4 -4 -4 -4 -4 -5 -5 -5 -5 -6
10 10 9 8 8 8 7 7 7 7 6 6 6 5 5 5 5 5 5 4 4 4 4 4 5 5 6 5 5 5 5 4 4 4 4 3 3 2 2 2 1 1 1 1 0 0 -0 -0 -0 -0 -0 -1 -1 -1 -2 -2 -3 -3 -4 -4 -4 -4 -5 -5 -5 -5 -6 -6 -6
10 9 8 8 7 7 7 7 6 6 6 5 5 5 5 5 5 5 4 4 4 4 4 4 5 5 5 5 5 5 4 4 4 4 3 3 2 2 2 1 1 0 0 -0 -0 -1 -1 -1 -1 -1 -1 -1 -2 -2 -2 -3 -3 -4 -4 -4 -5 -5 -5 -5 -6 -6 -6 -6 -7
9 9 8 7 7 7 7 6 6 6 5 5 5 4 4 4 4 4 4 4 4 3 3 3 4 4 4 4 4 4 4 4 4 3 2 2 2 2 1 1 0 -0 -1 -1 -1 -1 -1 -1 -1 -1 -1 -2 -2 -3 -3 -3 -4 -4 -4 -5 -5 -5 -6 -6 -6 -6 -7 -7 -7
9 9 8 7 7 7 6 6 5 5 5 5 5 4 4 4 4 4 4 4 3 3 3 3 3 3 3 4 4 4 4 4 4 3 2 2 2 1 1 0 -0 -1 -1 -1 -2 -2 -2 -2 -2 -2 -2 -2 -3 -3 -3 -4 -4 -4 -5 -5 -5 -6 -6 -6 -6 -7 -7 -7 -8
9 9 8 7 7 6 6 5 5 4 4 4 4 4 4 4 4 4 4 3 3 3 3 3 3 4 4 4 4 4 3 3 2 2 1 1 1 1 0 -0 -1 -1 -2 -2 -2 -3 -3 -2 -2 -2 -2 -2 -3 -3 -3 -4 -4 -5 -5 -5 -6 -6 -6 -6 -7 -7 -7 -8 -8
9 8 7 7 6 6 5 5 4 4 4 4 4 4 4 4 4 4 4 3 3 3 3 3 3 4 4 4 3 3 2 2 1 1 1 1 1 1 0 -0 -1 -2 -2 -3 -3 -3 -3 -3 -3 -3 -3 -3 -3 -3 -4 -4 -5 -5 -5 -6 -6 -6 -7 -7 -7 -7 -8 -8 -8
8 8 7 7 6 5 5 4 4 4 4 4 4 4 4 4 4 4 4 3 4 4 4 4 4 4 3 3 3 2 1 1 1 1 1 1 1 0 0 -0 -1 -2 -3 -3 -3 -3 -3 -3 -3 -3 -3 -3 -3 -4 -4 -4 -5 -5 -6 -6 -6 -7 -7 -7 -7 -8 -8 -8 -8
8 8 7 7 6 5 5 4 4 4 4 4 4 4 4 4 4 4 3 3 3 4 4 4 3 3 3 2 2 1 1 0 -0 0 0 0 0 -0 -0 -1 -1 -2 -3 -3 -4 -4 -4 -4 -4 -4 -4 -4 -4 -4 -4 -5 -5 -5 -6 -6 -6 -7 -7 -7 -8 -8 -8 -8 -8
Height
721 721 720 720 720 720 720 721 723 725 727 729 732 734 737 739 742 745 748 750 752 754 757 759 760 763 767 771 774 775 776 776 776 777 778 780 784 788 791 793 793 793 793 793 793 793 794 794 794 795 795 795 796 796 796 797 798 798 799 800 800 800 801 801 801 801 802 802 803
721 720 720 720 721 721 720 721 723 725 727 729 732 735 738 740 743 746 749 751 753 755 757 759 761 764 768 772 775 776 776 776 777 778 780 783 787 790 792 793 793 793 794 794 795 795 795 795 795 795 795 795 795 795 796 797 797 798 799 799 800 800 800 800 801 801 801 802 802
720 720 721 722 723 722 721 722 724 727 729 731 734 737 739 742 745 748 750 752 754 756 758 761 763 765 768 772 774 775 776 777 778 780 783 786 788 789 790 791 792 793 794 795 795 795 795 794 794 795 795 795 795 795 796 797 797 798 798 799 799 800 800 800 800 801 801 801 802
720 722 723 725 725 724 723 723 726 729 731 733 735 738 741 744 746 749 751 753 755 757 759 762 764 766 768 771 773 775 777 778 779 781 783 786 787 788 789 790 791 793 794 794 794 794 794 794 794 794 794 794 795 795 796 796 797 798 798 799 799 799 800 800 800 800 800 801 801
722 724 726 728 728 728 727 727 730 732 734 735 737 739 742 745 747 749 751 753 755 757 759 761 764 766 769 771 773 775 776 777 779 781 782 784 785 786 788 789 791 792 793 793 793 793 793 794 794 794 794 794 795 795 796 796 797 798 798 799 799 799 799 799 799 800 800 800 800
723 726 728 730 731 732 732 732 733 735 736 736 737 739 742 744 746 748 750 752 754 757 759 761 764 767 769 771 772 773 774 776 777 778 780 781 783 784 786 788 789 790 791 792 792 793 793 793 793 794 794 794 794 795 796 797 798 798 798 799 799 799 799 799 799 799 799 799 800
718 721 724 727 730 732 733 733 735 737 738 737 737 738 741 743 746 747 748 751 753 756 759 761 764 766 768 770 771 772 773 774 775 777 778 780 782 783 785 786 788 788 789 790 791 792 793 793 793 793 793 793 794 795 796 797 797 798 798 798 798 798 798 798 798 798 798 799 799
717 718 719 722 724 726 728 730 733 735 738 738 738 739 741 743 746 748 749 751 753 755 758 760 762 764 766 768 769 770 772 773 774 776 777 779 781 782 784 785 786 788 788 790 790 791 792 792 792 792 792 793 793 794 795 796 797 798 798 798 798 798 798 798 798 798 798 798 799
720 720 719 720 721 722 724 726 728 731 734 737 739 740 742 744 746 748 749 751 753 754 756 758 760 762 764 766 767 769 770 772 773 775 777 778 779 781 783 784 785 787 788 789 790 790 791 791 791 791 792 792 793 794 795 796 796 797 797 797 797 797 797 797 797 798 798 798 798
720 721 721 721 722 723 724 726 728 729 731 735 738 741 743 744 746 748 749 751 752 754 755 757 758 760 762 764 765 767 769 771 773 774 776 777 778 779 781 783 784 786 787 788 788 789 789 790 790 790 791 792 793 793 794 795 795 796 796 796 796 796 796 797 797 797 798 798 798
718 720 721 721 722 723 724 726 727 728 730 733 738 741 743 744 746 748 749 750 752 753 754 755 757 758 760 762 764 766 768 770 772 773 774 775 776 778 780 782 783 785 786 787 787 788 788 789 789 790 791 791 792 793 793 793 794 794 795 795 795 795 796 796 796 797 797 797 798
716 718 719 720 721 723 724 725 725 727 729 732 736 739 741 743 745 747 748 750 751 752 753 754 755 756 758 760 762 764 767 768 770 771 772 773 775 777 779 781 782 783 785 785 786 787 787 788 789 789 790 791 791 792 792 792 793 793 793 794 794 795 795 796 796 796 797 797 797
713 715 717 718 720 721 723 723 724 726 728 731 734 737 740 742 744 746 748 749 750 751 753 753 754 755 756 758 760 763 764 766 767 768 769 771 774 776 778 780 782 783 783 784 785 786 786 787 788 788 789 790 790 790 791 791 791 792 792 793 793 794 794 795 795 796 796 796 796
711 713 715 717 718 719 721 722 723 725 727 730 732 735 738 740 742 744 746 747 749 750 752 753 754 755 756 757 759 761 762 764 765 766 768 770 773 775 777 779 781 782 783 783 784 785 786 787 787 788 788 788 789 789 789 790 790 791 792 792 793 793 794 794 795 795 795 795 795
709 711 713 715 716 718 719 721 723 724 726 728 731 733 736 738 740 742 744 746 748 749 751 753 754 755 756 757 758 760 761 762 763 765 767 769 772 774 776 778 780 781 782 783 783 784 785 786 786 787 787 787 788 788 788 789 790 790 791 792 792 793 793 794 794 794 794 794 795
707 709 711 713 715 716 718 720 722 723 725 727 729 731 733 736 738 740 742 744 746 748 750 752 753 755 756 757 758 759 761 762 763 764 766 768 771 773 776 777 778 780 781 781 782 783 784 785 785 785 786 786 787 787 788 788 789 790 790 791 792 792 793 793 793 793 793 794 794
704 706 709 711 713 714 716 718 720 722 723 725 727 728 731 733 736 738 740 742 744 747 749 750 752 753 755 756 758 759 760 761 762 763 765 768 770 773 774 776 777 778 779 780 781 782 783 783 784 784 785 785 786 787 787 788 789 789 790 790 791 791 792 792 792 793 793 793 793
702 704 707 709 711 713 714 716 718 719 721 723 724 726 728 731 733 736 738 740 742 744 747 749 751 752 753 754 756 758 759 760 761 763 765 767 769 772 773 775 776 777 778 779 780 781 781 782 783 783 784 785 785 786 787 788 788 789 789 790 790 791 791 791 792 792 792 792 793
701 703 705 707 709 711 713 714 715 717 718 720 722 724 726 728 730 733 736 738 740 743 745 748 750 751 752 753 754 756 758 759 761 763 765 767 769 771 773 774 775 776 777 778 779 780 780 781 782 783 783 784 785 785 786 787 788 788 789 789 790 790 790 791 791 791 791 792 792
700 701 703 705 708 709 711 712 713 714 716 718 720 722 724 726 728 730 733 736 739 741 743 746 748 749 750 751 753 754 757 758 760 763 765 767 768 770 772 773 774 775 776 777 778 778 779 780 781 782 783 783 784 785 786 786 787 788 788 789 789 789 790 790 790 790 791 791 792
699 700 702 704 706 708 709 710 712 713 714 716 718 720 722 724 726 728 730 733 737 740 742 744 746 747 748 750 752 753 755 758 761 763 765 767 768 770 771 772 773 774 775 776 777 778 778 779 780 781 782 783 783 784 785 786 787 787 788 788 788 789 789 789 790 790 790 791 791
700 701 702 704 706 707 708 709 711 712 713 715 716 718 720 722 724 726 729 732 735 738 741 743 744 745 746 748 750 752 755 758 761 763 765 766 768 769 771 772 772 773 774 775 776 777 778 778 779 780 781 782 783 783 784 785 786 787 787 788 788 788 788 789 789 790 790 791 791
702 703 703 704 705 706 708 709 710 711 712 713 715 717 718 720 722 725 728 731 734 737 739 741 743 744 745 747 749 751 754 757 760 763 765 766 768 769 770 771 772 772 773 774 775 776 777 778 779 780 780 781 782 783 784 785 785 786 787 787 787 788 788 788 789 789 790 790 791
701 703 704 704 705 706 707 708 708 709 711 712 714 716 718 720 722 725 727 730 733 735 738 740 742 743 744 746 748 750 753 756 759 762 764 766 767 768 769 770 771 772 772 773 774 775 776 777 778 779 780 781 782 783 783 784 785 785 786 786 787 787 788 788 788 789 789 790 791
698 701 703 704 704 705 706 707 707 708 709 710 712 714 717 719 722 724 727 729 731 734 737 739 741 742 743 745 747 749 752 755 758 761 763 764 766 767 768 769 770 771 772 773 774 775 776 776 777 778 779 780 781 782 783 784 784 785 785 786 786 787 787 788 788 789 789 790 791
694 698 700 702 703 704 705 705 706 707 708 709 711 713 715 718 721 723 726 728 730 733 735 738 740 742 742 743 745 748 750 753 757 759 761 763 765 766 767 768 769 770 771 772 773 774 775 776 777 778 778 779 780 781 782 783 783 784 785 785 786 786 787 787 788 788 789 790 790
692 694 697 699 701 702 703 704 705 706 707 708 710 712 714 717 720 723 725 727 729 732 735 737 739 740 741 742 743 746 749 752 755 758 760 761 763 765 766 767 768 769 770 771 773 773 775 776 776 777 778 778 779 780 781 782 783 783 784 784 785 786 786 787 788 788 789 789 790
689 692 694 696 698 700 702 703 704 705 706 707 709 711 713 717 720 723 725 728 729 732 734 737 739 739 739 740 742 745 748 751 754 756 758 760 762 763 764 766 767 768 769 771 772 773 774 775 776 777 777 778 779 780 781 781 782 783 783 784 785 786 786 787 787 788 788 789 790
687 689 691 694 696 698 700 701 703 703 705 706 708 710 713 716 719 723 725 728 730 732 734 736 737 738 738 738 741 744 747 750 753 755 758 759 761 763 763 765 766 767 769 770 771 772 773 774 775 776 777 778 778 779 780 781 782 782 783 784 785 785 786 786 787 788 788 789 789
684 686 688 690 692 694 697 699 700 702 703 705 707 709 712 716 720 723 725 727 729 731 733 734 735 736 736 737 740 743 746 749 752 754 756 758 760 762 763 764 765 767 768 769 771 772 773 773 774 775 776 777 778 778 779 780 781 782 783 783 784 785 785 786 787 787 788 788 789
682 684 686 688 689 691 693 696 698 700 702 704 705 707 711 716 719 722 724 726 728 730 732 733 734 734 734 737 739 743 746 748 751 753 755 757 759 761 762 763 765 766 768 769 770 771 772 773 773 774 775 776 777 778 779 780 781 782 783 783 784 784 785 786 786 787 787 788 788
680 682 684 686 687 689 691 694 696 698 700 702 703 706 710 715 718 721 723 725 727 729 731 733 733 733 734 736 739 742 745 748 750 752 754 756 758 760 762 763 764 766 767 768 769 770 771 772 773 774 775 776 777 778 779 780 781 782 783 783 784 784 785 785 786 786 787 788 788
679 681 683 684 686 688 690 692 694 697 698 700 701 705 710 715 718 721 723 725 727 728 730 731 731 732 733 736 739 742 745 747 749 752 754 756 758 759 761 763 764 765 767 768 769 770 771 771 772 773 774 775 777 778 779 780 781 782 782 783 783 784 784 785 785 786 787 787 788
678 679 681 683 685 687 689 691 693 695 697 698 700 704 710 714 718 721 723 724 726 727 728 729 729 730 732 735 738 741 744 747 749 751 753 755 757 759 760 762 763 765 766 768 769 769 770 771 772 773 774 775 777 778 779 780 781 781 782 783 783 783 784 784 785 786 786 787 787
676 678 680 682 684 686 688 690 692 694 695 696 699 704 709 714 717 719 721 723 725 727 728 728 729 730 733 736 738 741 743 746 749 751 753 755 757 758 760 761 763 765 766 768 768 769 770 771 772 773 774 775 777 778 779 780 780 781 782 782 783 783 784 784 785 785 786 787 787
675 676 678 680 683 684 686 688 690 692 693 694 698 703 708 713 716 718 720 722 724 726 728 729 730 731 734 737 739 741 743 746 748 751 753 754 756 758 759 761 763 765 766 767 768 769 770 771 772 773 774 775 777 778 779 779 780 781 781 782 782 783 783 784 784 785 786 786 787
673 674 676 678 680 682 683 685 688 690 692 693 696 700 706 712 716 718 720 721 723 725 727 728 729 731 734 736 739 741 743 746 748 751 753 754 755 757 759 761 763 765 766 767 768 769 769 771 772 773 774 775 777 778 778 779 780 781 781 782 782 783 783 784 784 785 786 786 786
671 672 673 675 678 679 681 683 685 688 689 691 694 698 704 710 714 717 719 720 721 723 725 727 729 731 733 735 738 740 743 747 749 750 752 753 755 756 758 760 763 764 766 767 768 769 770 771 772 773 774 776 777 778 778 779 780 780 781 781 782 782 783 783 784 785 785 786 786
668 669 671 673 675 677 679 681 683 685 687 690 693 698 703 709 713 716 717 718 719 721 723 726 728 730 732 734 737 740 744 747 749 751 752 753 755 756 758 760 762 764 766 767 768 768 770 771 772 773 775 776 777 778 778 779 779 780 781 781 782 782 783 783 784 784 785 785 786
665 667 669 671 673 676 678 680 682 683 686 689 693 698 703 707 711 714 716 718 719 721 723 724 727 729 731 734 737 740 744 747 750 751 752 753 755 756 758 760 762 763 765 767 768 768 770 771 772 774 775 776 777 777 778 778 779 780 780 781 781 782 783 783 783 784 784 784 785
663 665 668 669 672 674 676 678 681 683 686 688 692 697 701 706 710 713 715 717 718 720 722 724 726 728 731 733 736 740 744 747 749 751 753 753 755 757 758 759 761 763 764 766 767 768 769 771 772 773 775 776 776 777 778 778 779 779 780 781 781 782 782 783 783 783 783 784 784
Wind_Speed
12 12 13 14 16 19 22 23 25 26 28 29 29 28 29 29 28 27 27 27 28 27 27 27 26 25 24 21 20 19 17 16 14 13 12 12 12 13 14 14 13 11 10 9 8 8 8 8 8 8 8 8 7 7 7 6 6 6 6 6 5 5 5 4 4 3 3 2 2
9 10 13 16 19 21 23 24 25 26 28 29 30 30 30 30 30 29 28 28 29 29 29 29 28 27 25 22 20 18 15 13 13 14 15 16 15 15 14 11 8 6 4 4 6 7 9 9 9 8 8 8 8 7 7 7 7 6 7 6 6 5 5 4 4 3 3 2 2
9 12 16 19 21 22 23 25 26 28 29 30 30 30 30 29 29 28 28 30 31 32 32 31 30 29 26 24 22 19 15 13 15 17 18 18 16 14 11 8 7 6 7 8 9 10 10 9 9 8 8 8 8 8 8 8 7 7 7 6 6 5 5 4 4 3 2 2 2
13 16 19 21 23 24 26 28 29 30 31 31 32 31 30 30 29 30 31 33 35 35 34 33 32 30 28 26 23 20 17 16 19 21 21 20 17 14 12 10 10 11 11 12 12 12 11 10 9 8 8 8 8 8 8 8 7 7 6 6 5 5 4 4 3 3 2 2 2
18 21 22 23 25 27 29 31 32 32 32 33 34 32 31 30 31 32 33 35 35 35 35 35 33 31 29 27 25 23 21 21 24 25 24 21 18 16 15 14 15 15 15 15 14 12 11 10 10 9 8 8 8 8 7 7 7 7 6 5 5 4 4 4 3 2 2 2 2
24 25 25 25 26 28 29 31 33 33 33 34 34 33 31 31 32 33 34 35 35 36 36 35 34 32 30 29 27 25 25 26 28 28 26 22 20 19 19 19 19 19 17 15 14 13 12 11 11 10 9 8 8 8 7 6 6 6 6 5 5 4 3 3 2 2 2 1 1
29 30 29 28 28 29 31 32 33 33 33 32 33 33 32 32 33 34 35 36 36 36 37 36 34 33 32 30 28 27 28 30 30 29 27 24 23 23 23 23 21 19 17 15 14 13 12 12 11 11 10 9 9 8 7 7 6 6 6 5 5 4 3 2 2 1 1 1 1
30 32 33 32 33 34 35 36 36 35 32 30 30 31 33 33 34 34 34 34 34 36 37 36 36 35 33 31 29 30 31 33 33 32 29 28 27 26 25 22 20 18 17 15 14 14 13 12 11 10 10 9 9 8 7 7 7 6 6 5 4 3 2 2 1 1 1 1 1
28 31 33 34 36 37 38 38 38 36 33 30 30 31 33 34 34 34 33 32 33 36 37 37 37 36 33 31 31 33 35 36 35 34 32 30 28 26 24 21 20 18 17 16 15 14 13 12 11 10 9 9 9 8 8 7 7 6 6 5 4 3 2 2 1 1 1 1 1
27 28 31 33 36 38 38 38 38 37 35 32 31 32 33 34 34 33 32 32 33 35 37 37 37 36 34 33 34 36 37 37 36 34 32 29 26 24 22 21 20 19 18 16 15 14 12 12 11 10 9 9 8 8 8 7 7 6 6 5 4 3 3 2 2 1 1 1 1
29 28 30 32 35 37 38 39 37 36 35 34 34 34 34 34 33 33 32 31 32 34 36 37 37 37 36 36 37 38 38 37 36 33 31 27 24 23 21 21 20 19 18 17 15 14 12 11 11 10 9 9 8 8 8 7 7 6 6 5 4 3 3 2 2 1 1 1 1
30 30 30 32 35 38 38 38 36 35 35 35 35 34 34 33 33 32 31 31 32 34 36 37 38 38 38 39 40 40 39 37 35 32 29 26 24 22 22 21 21 20 18 17 15 14 12 11 10 10 10 9 8 8 7 7 6 5 5 4 4 3 3 3 2 2 1 1 0
32 32 32 33 36 37 37 36 34 33 33 34 35 34 33 33 33 33 32 32 33 34 35 37 39 40 41 42 42 41 39 37 34 31 28 25 24 23 23 22 21 20 18 17 15 14 12 11 10 10 9 9 8 7 6 5 5 5 5 4 4 4 3 3 2 2 1 1 1
33 33 33 34 36 36 35 33 31 30 32 34 35 34 34 34 34 34 33 34 34 34 35 36 39 41 43 44 43 41 39 36 33 30 27 25 24 24 23 22 21 20 18 17 15 14 13 11 10 9 9 8 8 7 6 5 4 4 4 4 4 4 4 3 3 2 2 2 2
34 34 34 34 35 34 32 31 29 30 32 34 35 35 34 34 35 35 34 34 34 34 34 35 38 40 43 44 43 40 37 35 32 30 27 26 25 25 24 23 21 20 18 17 15 14 12 11 10 9 8 8 7 6 5 5 4 4 4 4 4 4 4 4 3 3 2 2 3
35 35 35 34 34 32 31 30 29 30 33 35 35 35 35 34 34 35 35 35 34 34 34 36 37 39 41 43 41 39 36 34 32 29 27 27 26 26 25 23 22 21 19 18 16 15 13 11 10 8 8 7 7 6 6 5 5 5 5 5 5 4 4 4 3 3 3 3 3
36 36 35 34 34 33 31 31 30 31 33 35 36 36 35 34 34 35 36 35 34 35 36 37 38 39 41 41 40 38 36 34 31 29 28 27 27 26 25 24 23 21 20 18 17 15 13 12 10 9 8 7 7 6 6 6 6 6 5 5 5 5 4 4 3 3 3 3 4
34 36 36 35 34 34 33 33 32 33 34 35 36 36 36 35 35 36 36 36 36 37 37 38 38 39 41 41 39 37 35 33 31 29 28 27 27 27 26 24 23 21 20 18 17 15 14 12 11 9 8 8 7 7 7 7 7 6 6 6 5 5 4 4 3 3 3 4 4
33 34 35 35 35 34 34 35 34 34 35 36 36 36 37 37 37 37 37 37 38 39 39 39 39 40 41 41 39 38 36 33 30 28 27 27 27 27 26 24 23 21 20 18 16 15 13 12 11 10 9 9 8 8 8 8 8 7 7 6 6 5 4 4 3 3 4 4 5
31 33 34 35 35 35 35 35 35 36 36 37 38 38 38 38 39 39 38 38 39 41 42 42 41 41 41 41 40 38 35 31 28 27 27 27 27 27 26 24 23 21 19 18 16 15 13 12 12 11 10 10 10 10 9 9 9 8 8 7 6 5 5 4 3 3 4 4 6
30 32 33 34 35 35 35 36 36 36 37 38 39 39 40 40 41 41 40 40 40 42 43 44 43 42 42 42 40 38 33 28 26 26 27 27 27 26 25 24 23 21 19 18 16 15 14 13 12 11 11 11 11 10 10 10 10 9 8 7 7 6 5 4 3 3 4 5 6
27 29 32 33 35 36 36 36 36 37 38 39 40 40 41 41 42 42 41 40 42 43 44 45 45 44 43 42 40 36 30 26 25 26 27 27 27 26 25 24 22 21 20 18 17 15 14 13 13 12 12 11 11 11 11 11 10 10 9 8 7 6 5 4 3 4 4 6 7
25 27 30 33 35 36 36 35 36 37 38 39 40 40 40 41 41 41 40 40 42 44 45 45 46 45 44 42 37 33 28 25 26 27 28 27 26 26 24 23 22 21 20 19 17 16 15 15 14 13 12 12 12 12 12 11 11 10 9 8 7 6 5 4 4 4 5 6 7
26 29 31 33 35 36 35 36 36 37 38 38 39 39 39 39 39 39 39 40 43 44 45 45 45 45 43 40 35 30 27 26 27 28 28 27 26 26 25 23 22 21 20 19 18 17 16 16 15 14 13 13 13 13 12 12 11 10 9 8 7 6 5 4 4 4 5 6 6
31 32 33 33 34 35 35 36 37 38 38 38 38 38 38 38 38 38 39 41 43 44 44 44 44 44 42 38 33 30 28 27 29 30 29 28 27 26 25 24 22 21 20 18 18 17 16 15 15 15 14 14 14 13 13 12 11 10 8 7 6 6 5 4 4 4 4 5 5
34 35 35 34 34 34 34 36 37 38 38 37 38 37 37 37 36 37 38 40 42 43 43 43 42 42 40 37 33 30 29 28 29 30 30 29 28 27 26 24 23 21 20 19 18 17 16 15 15 15 15 15 15 15 14 13 11 10 8 7 6 6 5 4 3 3 3 3 3
36 36 36 35 34 33 34 35 36 37 36 36 37 37 37 36 35 36 37 39 41 42 41 40 40 39 38 36 34 32 30 30 30 31 31 31 30 28 27 25 24 22 21 20 18 17 16 15 15 15 15 15 15 15 14 13 11 10 9 7 6 5 4 3 3 2 2 2 2
36 36 36 36 34 33 33 35 35 35 36 36 36 36 36 35 34 34 35 37 38 39 38 37 37 37 37 35 34 32 31 31 32 32 32 31 30 29 28 26 24 23 21 20 19 18 17 16 15 15 15 15 15 15 13 12 11 10 9 7 6 5 4 3 3 2 2 2 3
37 37 36 35 34 34 33 34 34 35 35 35 36 36 35 33 33 33 34 34 35 35 35 34 34 35 36 36 35 33 32 32 33 33 32 31 30 29 27 26 24 23 21 20 19 18 17 17 16 16 16 16 15 14 13 12 11 10 8 7 6 5 4 3 3 2 3 3 4
37 37 37 36 35 34 34 34 35 35 35 35 35 35 34 33 33 33 34 34 34 35 34 34 34 35 36 36 35 34 34 34 33 33 32 31 30 28 27 26 24 23 21 20 19 19 18 18 17 17 16 16 15 14 13 12 10 9 8 7 5 4 4 3 3 3 4 4 4
37 36 36 35 35 35 35 35 35 35 35 35 36 36 34 33 33 34 34 35 36 35 34 33 34 35 36 36 36 36 36 35 34 33 32 31 30 29 27 25 24 22 21 20 20 19 19 18 18 18 17 16 15 14 13 11 10 9 7 6 5 4 4 4 4 4 4 5 5
35 35 34 34 34 35 35 35 35 35 35 36 36 36 35 33 34 34 35 36 36 34 32 32 34 35 36 36 37 37 37 36 34 32 32 31 30 29 27 25 23 22 21 20 20 19 19 19 18 18 17 16 15 13 12 11 10 8 7 6 5 5 4 4 4 5 5 5 6
32 33 33 33 34 34 35 35 35 35 36 36 36 35 34 34 34 34 34 35 35 34 33 33 34 36 36 37 37 37 37 35 33 32 31 31 30 28 26 25 23 22 21 20 20 19 19 19 18 18 17 15 14 13 12 10 9 8 7 6 6 5 5 4 5 5 5 6 6
31 31 32 32 33 34 34 35 36 36 37 37 37 36 34 34 34 33 33 33 33 34 34 35 36 37 38 38 38 37 36 34 32 31 31 30 29 28 26 25 23 22 21 20 20 19 18 18 18 17 16 15 14 12 11 10 9 8 7 7 6 5 5 5 5 5 5 5 6
31 31 32 32 33 34 34 36 37 37 37 37 37 36 35 34 34 34 33 33 33 32 33 34 36 37 38 38 38 37 35 32 31 30 30 30 29 27 26 25 23 22 21 20 19 18 18 17 17 16 15 14 13 12 11 9 8 8 7 6 6 5 5 5 5 5 5 5 5
33 34 34 34 34 35 36 37 37 38 38 39 39 38 36 34 34 34 34 34 32 31 30 31 32 34 34 34 34 34 33 31 30 30 30 29 28 27 26 25 23 22 21 20 19 18 18 17 16 16 15 14 13 12 10 9 8 7 7 6 6 5 5 5 5 5 5 5 4
36 38 38 38 36 36 37 38 38 38 39 41 41 40 37 35 34 33 33 33 32 31 31 31 32 32 33 33 32 31 30 30 31 31 30 29 28 28 26 25 23 22 20 20 19 18 17 17 16 15 14 14 12 11 10 9 8 7 7 7 6 5 5 5 5 5 5 4 4
40 41 41 40 38 37 38 39 39 40 40 41 41 40 38 35 33 33 33 34 34 33 32 32 33 33 33 32 30 29 29 29 30 31 30 29 28 28 27 26 24 22 21 19 18 18 17 16 15 14 13 12 11 10 9 8 8 7 7 7 6 5 5 5 5 5 5 4 2
41 42 41 40 38 37 38 38 40 41 41 41 40 39 37 35 33 33 34 34 35 35 34 33 33 32 31 30 28 28 28 28 29 30 30 29 28 27 27 26 25 23 21 19 18 17 16 16 15 13 12 11 10 9 9 8 8 8 7 6 6 5 5 5 5 5 5 5 3
40 41 40 39 38 38 38 38 40 41 41 40 39 38 36 35 34 33 33 33 34 34 34 32 31 30 29 28 27 28 28 28 28 28 28 28 28 27 26 26 25 23 21 19 18 17 16 15 14 13 11 10 9 8 8 8 8 8 8 7 6 5 5 4 4 5 5 5 5
40 40 40 39 39 39 38 38 39 40 40 40 39 38 36 36 34 33 32 32 32 31 31 30 30 29 29 28 28 29 29 28 27 27 27 27 27 26 26 25 25 23 21 19 17 16 15 14 14 12 11 10 9 8 8 8 9 9 8 7 5 5 4 4 3 3 4 4 5
Wind_Direction
233 223 205 186 171 158 150 145 144 144 144 143 139 137 135 134 132 131 133 134 133 132 131 130 128 127 128 130 135 138 137 131 122 114 108 106 118 135 146 149 145 140 138 141 149 158 164 167 169 169 168 168 166 164 161 159 159 158 156 152 149 147 143 136 128 121 113 106 93
226 204 184 171 160 151 142 137 136 137 137 137 136 135 133 132 131 131 132 133 134 134 133 132 132 133 136 140 145 146 141 129 119 113 114 121 133 145 151 150 147 148 163 186 186 173 163 163 164 164 164 164 163 158 155 154 155 155 151 147 145 145 143 138 131 124 116 104 86
192 173 165 158 150 142 136 132 131 132 133 134 140 138 133 134 134 135 135 137 137 137 137 138 140 144 148 152 154 154 152 144 133 129 132 142 152 160 165 169 172 182 193 195 179 165 158 159 160 161 160 159 159 155 151 152 155 155 150 145 145 146 145 139 132 124 112 98 76
154 150 148 145 141 137 133 130 131 132 134 136 139 139 138 139 140 140 140 141 141 142 143 146 149 153 156 159 161 166 169 163 150 148 153 163 172 179 183 182 181 182 177 166 155 150 151 153 155 156 157 156 156 153 152 152 157 157 153 148 147 146 143 137 130 119 103 86 64
136 137 138 138 138 136 135 135 136 137 139 141 141 142 144 145 146 145 145 146 147 149 152 154 157 160 163 166 171 177 177 168 162 163 170 177 183 185 183 179 175 168 158 149 146 144 146 147 150 152 154 156 154 153 153 157 161 161 156 152 149 144 138 131 123 112 98 81 63
137 140 142 143 145 144 143 143 144 145 145 146 147 148 149 150 150 150 150 152 154 156 158 160 162 165 170 175 181 181 176 170 171 174 179 183 184 181 175 169 162 155 149 145 144 144 145 146 148 150 152 155 155 155 157 163 168 166 161 154 148 145 139 132 122 113 100 85 71
150 153 155 157 159 157 154 153 153 153 152 152 152 152 152 153 154 154 154 156 158 160 162 164 167 172 177 182 182 178 173 173 178 182 184 182 178 172 166 160 155 151 149 148 147 148 149 149 149 149 150 153 155 158 162 168 175 173 167 157 152 150 145 133 129 119 106 94 83
159 160 162 165 166 164 162 160 159 158 157 157 156 155 156 157 157 157 158 158 160 163 166 169 174 179 182 183 179 176 176 179 183 185 182 176 169 163 160 157 155 154 153 152 152 153 152 151 150 149 150 152 156 160 166 174 178 176 171 162 156 154 148 136 128 122 110 103 94
162 162 164 165 166 166 164 164 163 161 160 160 161 160 160 160 161 161 161 162 164 167 171 175 180 183 183 181 179 179 181 182 183 180 174 166 161 158 157 158 158 158 158 158 158 157 155 153 151 150 151 154 158 164 170 178 178 176 171 166 161 155 151 145 134 125 118 114 100
168 165 164 163 164 165 165 164 164 163 162 162 162 163 163 164 165 165 165 166 168 171 175 179 182 183 182 180 181 182 182 180 176 170 164 159 157 157 159 160 161 162 162 163 162 159 156 153 152 152 154 158 164 168 173 178 177 172 168 166 164 160 155 152 146 137 129 120 103
173 170 167 165 165 166 165 163 163 164 164 164 165 166 166 167 167 168 169 170 172 176 179 181 182 181 181 181 182 181 178 173 168 164 160 157 157 158 161 163 165 166 166 164 163 160 158 155 155 156 159 163 169 173 176 178 176 170 165 164 167 165 161 159 164 159 143 127 106
177 174 171 168 168 167 166 165 164 164 165 167 169 170 170 171 171 172 172 173 176 179 181 182 182 181 181 181 181 178 173 168 165 162 159 158 159 161 164 167 168 168 167 165 163 161 160 159 159 161 164 166 171 175 178 177 175 170 167 168 172 172 170 169 174 178 183 203 214
180 177 173 171 170 169 169 168 167 167 168 170 172 173 174 175 175 175 175 177 178 179 181 182 182 182 181 181 178 174 169 167 165 162 160 160 162 165 168 170 170 170 168 165 164 163 162 162 163 165 167 169 171 174 177 178 178 177 176 177 179 180 180 181 188 201 223 250 265
183 180 176 174 172 171 171 171 171 171 172 173 174 175 176 177 177 177 178 178 178 179 180 181 182 182 181 179 175 171 169 168 165 162 161 162 164 168 171 172 172 171 169 167 166 166 165 165 166 167 169 170 171 172 175 179 183 186 187 186 185 185 187 192 201 218 239 258 277
185 182 179 178 176 175 175 175 175 175 175 176 176 177 178 178 178 178 178 178 178 178 178 179 180 180 179 176 173 171 169 167 165 162 162 163 167 170 173 174 174 173 171 170 169 169 170 169 168 169 170 171 171 172 176 181 186 190 191 191 189 189 193 198 210 228 248 267 287
186 184 182 181 180 180 180 180 180 179 178 178 177 178 178 178 178 178 177 177 177 176 177 178 178 178 177 175 173 171 169 168 165 163 163 166 170 173 175 176 175 175 174 172 172 172 172 172 172 172 172 173 173 176 180 185 189 191 191 191 192 194 198 205 218 236 260 280 295
185 184 183 183 183 183 183 183 182 181 180 178 178 177 177 176 176 176 176 176 175 175 176 177 177 176 174 174 173 171 170 169 166 165 166 169 173 176 177 178 177 176 176 175 174 173 173 173 175 177 178 178 179 182 186 189 192 191 192 193 195 197 203 215 229 249 273 291 301
184 183 183 184 184 185 185 184 183 181 180 178 177 176 175 174 174 174 175 175 175 175 176 176 176 175 174 173 173 172 171 170 167 167 169 172 175 178 179 179 179 178 178 177 176 175 174 174 176 180 182 183 185 188 191 193 193 193 193 194 197 201 208 219 237 258 279 295 305
183 182 183 184 185 185 185 183 182 180 179 177 176 174 174 173 173 173 174 175 176 176 175 175 175 175 174 174 174 173 172 170 168 169 172 175 178 179 180 180 179 180 179 179 178 176 175 176 179 182 185 186 188 190 193 194 193 193 193 195 198 203 211 222 240 261 281 295 307
183 182 183 184 185 185 184 183 181 180 178 176 174 173 173 173 173 173 174 175 176 176 176 175 175 175 175 175 174 174 172 170 170 172 175 178 180 181 181 180 180 181 181 180 180 179 179 180 183 186 188 189 189 190 191 192 192 192 192 195 197 202 210 222 241 262 283 297 308
184 184 184 185 186 185 185 183 181 179 176 175 174 173 173 173 173 174 174 175 176 176 176 176 176 176 176 175 174 173 172 172 174 176 179 181 182 182 182 181 181 181 181 182 182 182 183 184 187 189 191 192 192 192 192 192 191 191 192 194 197 202 209 222 240 264 286 301 312
188 187 187 187 187 187 186 184 181 178 176 175 174 174 174 174 175 175 175 174 175 176 176 177 177 177 176 175 174 172 172 175 178 181 182 184 184 184 183 183 183 182 183 184 184 185 186 188 190 192 193 194 194 194 194 193 192 191 192 194 197 201 209 223 243 266 288 304 315
198 197 194 191 189 188 186 184 181 178 176 175 174 174 174 174 175 174 173 173 175 176 177 178 179 178 176 174 172 172 172 176 181 184 186 186 186 186 185 186 185 185 185 186 187 188 188 189 191 193 195 195 194 195 196 195 194 193 193 194 197 202 212 228 248 273 295 310 318
210 210 203 196 191 188 186 184 180 178 176 175 175 174 174 174 174 173 172 173 175 177 178 179 179 178 176 173 172 172 174 177 182 186 188 188 188 187 187 188 188 188 188 189 191 192 192 191 191 192 194 195 194 194 195 195 196 195 195 196 200 206 217 234 256 282 303 315 319
210 210 205 197 191 189 187 183 180 178 176 175 174 174 173 173 172 172 172 174 176 178 178 179 178 177 175 173 173 174 177 181 185 187 189 190 190 189 189 189 190 190 191 192 194 196 197 197 195 193 193 193 193 192 193 194 195 196 198 201 207 213 223 241 265 288 305 315 315
207 206 201 195 192 189 187 184 180 178 176 174 173 172 172 172 171 172 173 175 176 178 178 178 178 176 174 173 173 176 179 183 187 189 190 191 190 190 190 190 191 192 193 194 196 198 199 200 199 198 196 194 192 190 189 190 193 196 201 207 214 221 231 247 269 288 301 305 295
205 202 197 193 192 190 188 184 180 177 175 172 171 170 170 170 170 172 174 176 177 177 177 177 177 176 174 172 174 176 180 183 187 190 191 191 191 190 190 191 191 193 194 195 197 198 199 199 199 198 197 195 194 192 190 191 193 198 204 210 218 227 238 251 263 271 274 269 244
203 198 194 192 191 190 187 183 179 176 173 171 170 168 167 168 170 172 175 176 176 176 176 176 176 175 172 171 174 178 181 184 186 189 190 191 190 190 190 190 191 193 194 195 196 197 197 197 197 197 197 196 195 195 195 196 198 202 208 213 220 227 235 242 246 242 232 225 215
200 196 192 190 190 188 185 181 178 174 172 169 167 165 164 165 169 173 175 176 176 175 175 175 175 173 171 171 175 179 182 185 186 187 188 188 188 189 189 189 190 192 193 195 195 196 196 195 194 195 195 196 196 196 198 201 204 207 210 213 218 222 223 223 222 220 217 214 210
197 194 191 189 187 184 182 179 176 173 169 166 163 161 162 165 171 174 176 176 176 176 176 175 174 172 171 172 176 179 181 183 184 185 186 186 186 187 188 189 189 190 192 193 194 194 194 193 193 193 194 195 196 198 200 204 207 209 209 210 210 210 208 206 208 209 209 207 204
195 192 189 186 183 179 177 175 172 169 166 163 161 160 162 167 173 175 177 177 177 177 177 176 174 173 173 175 178 179 180 181 181 183 185 186 186 187 187 188 187 188 190 192 193 192 192 191 192 192 193 195 197 200 203 205 207 207 205 201 197 195 196 201 204 204 204 202 201
193 190 186 182 178 175 173 171 169 166 164 162 160 161 164 170 175 177 177 177 177 177 176 175 174 172 173 175 177 179 179 178 179 181 185 186 186 186 186 186 186 187 189 190 191 191 191 190 191 192 193 196 198 201 202 203 202 198 194 189 187 189 194 199 201 201 202 202 204
191 187 182 178 173 171 169 167 166 165 163 161 160 162 167 173 176 177 177 177 176 176 176 175 173 171 171 173 174 175 176 176 178 182 185 187 186 184 183 182 183 186 188 189 190 190 189 189 190 191 193 195 197 197 197 196 193 188 182 180 183 189 195 200 201 202 203 206 209
186 181 176 172 170 168 166 166 165 164 163 161 161 164 169 173 175 175 175 176 176 176 176 175 173 173 173 174 173 173 173 175 178 182 185 186 185 183 180 180 181 184 186 187 188 187 187 188 188 189 191 193 194 194 192 189 185 180 178 179 183 190 196 200 202 204 206 210 213
179 174 171 169 168 167 166 166 165 164 162 161 162 165 170 174 175 175 175 176 176 175 175 174 172 172 172 173 173 173 172 174 178 182 185 185 183 181 179 178 180 182 184 185 185 185 185 186 186 187 188 190 190 189 186 183 179 178 178 180 182 187 193 198 201 204 208 213 217
176 172 170 169 169 168 167 166 166 165 163 162 163 166 170 174 176 176 176 175 173 172 171 170 168 167 167 169 170 171 173 176 180 183 184 183 181 179 177 177 177 179 181 183 182 182 183 184 184 185 186 186 185 183 181 180 178 177 177 178 179 182 190 198 203 206 211 215 222
180 175 173 172 171 170 169 168 167 166 164 164 165 166 169 173 175 176 174 172 170 169 168 167 166 166 167 168 169 171 175 181 184 184 183 182 180 178 176 175 175 176 178 180 179 180 181 182 182 183 184 184 182 180 178 177 176 175 175 176 176 181 191 204 209 211 211 214 224
184 180 177 174 173 171 170 168 167 167 166 165 165 166 169 172 174 175 174 171 169 167 166 166 166 167 169 170 170 172 178 184 185 184 182 180 180 179 176 173 173 175 176 177 177 178 179 180 181 183 184 184 182 180 178 175 172 171 172 174 175 179 191 208 216 218 214 206 210
186 181 178 175 173 172 170 169 168 167 166 164 164 165 168 171 173 174 174 172 170 169 167 167 167 168 170 171 171 173 178 184 185 184 182 180 180 180 177 174 173 173 175 176 177 177 178 178 178 181 184 186 185 182 178 172 167 165 167 172 176 180 189 205 220 226 223 209 198
186 182 179 176 174 172 171 170 169 168 165 163 162 164 167 171 173 173 172 171 170 170 169 168 168 169 169 170 171 174 178 182 184 184 183 180 180 180 179 176 174 172 173 174 175 177 177 177 178 180 182 185 186 183 176 169 163 161 162 165 173 182 191 203 220 232 235 229 223
187 183 180 177 175 173 172 171 169 167 165 162 162 165 169 172 172 171 170 170 169 169 168 167 167 167 167 168 172 175 178 179 181 182 182 180 179 178 179 178 175 172 171 172 174 176 177 178 179 181 183 185 184 180 175 168 162 160 160 161 166 180 195 206 221 237 245 245 240